Weather observations for the past three days for
Montague Siskiyou County Airport
Imperial (Metric)
Date Time (pdt) Wind (mph) Vis. (mi.) Weather Sky Cond. Temperature (ºF) Relative Humidity Wind Chill (°F) Heat Index (°F) Pressure Precipitation (in)
Air Dwpt 6 hour altimeter (in) sea level (mb) 1 hr 3 hr 6 hr
Max. Min.
24 11:53 W 9 10.00 Fair CLR 95 52 23% 92 30.05 1015.5
24 10:53 W 6 10.00 Fair CLR 89.1 52 89.1 64 28% 87 30.07 1016.0
24 09:53 NW 3 9.00 Fair CLR 84 54 36% 83 30.08 1016.6
24 08:53 Calm 8.00 Fair CLR 78.1 53.1 42% 79 30.09 1016.8
24 07:53 NE 3 8.00 Fair CLR 73 53.1 50% 30.09 1016.8
24 06:53 Calm 7.00 Fair CLR 68 52 57% 30.08 1016.5
24 05:53 NE 6 7.00 Fair CLR 66.9 51.1 57% 30.07 1016.1
24 04:53 NE 3 9.00 Fair CLR 66.9 51.1 81 66 57% 30.06 1015.8
24 03:53 NE 5 8.00 Fair CLR 69.1 51.1 53% 30.06 1015.8
24 02:53 NE 6 8.00 Fair CLR 72 52 50% 30.06 1015.7
24 01:53 NE 9 8.00 Fair CLR 75.9 52 43% 78 30.06 1015.7
24 00:53 N 8 8.00 Fair CLR 78.1 53.1 42% 79 30.06 1015.7
23 23:53 N 7 9.00 Fair CLR 75.9 53.1 45% 78 30.05 1015.6
23 22:53 N 8 10.00 Fair CLR 81 53.1 105.1 81 38% 80 30.04 1015.3
23 21:53 N 8 10.00 Fair CLR 82 53.1 37% 81 30.02 1014.8
23 20:53 N 9 10.00 Fair CLR 88 54 31% 86 29.99 1013.6
23 19:53 N 12 10.00 A Few Clouds FEW110 93.9 54 26% 92 29.97 1012.8
23 18:53 NW 16 10.00 Partly Cloudy SCT110 95 54 25% 93 29.94 1012.1
23 17:53 Calm 10.00 A Few Clouds FEW110 102.9 51.1 18% 100 29.93 1011.3
23 16:53 W 7 10.00 Fair CLR 104 51.1 105.1 82 17% 101 29.94 1011.6
23 15:53 Vrbl 3 10.00 Fair CLR 102.9 52 18% 100 29.96 1012.2
23 14:53 Vrbl 3 10.00 A Few Clouds FEW019 100 53.1 21% 98 29.98 1012.9
23 13:53 Calm 10.00 Fair CLR 97 52 22% 94 30 1013.7
23 12:53 Vrbl 3 9.00 Fair CLR 91.9 54 28% 90 30.02 1014.5
23 11:53 Vrbl 5 8.00 Fair CLR 88 54 31% 86 30.04 1015.3
23 10:53 Calm 8.00 Fair CLR 82 55 82 61 40% 81 30.06 1016.1
23 09:53 E 6 8.00 Fair CLR 77 54 45% 78 30.07 1016.7
23 08:53 N 5 8.00 Fair CLR 75 54 48% 78 30.08 1017.0
23 07:53 N 3 10.00 Fair CLR 69.1 53.1 57% 30.09 1017.4
23 06:53 NE 5 9.00 Fair CLR 61 51.1 70% 30.09 1017.5
23 05:53 Calm 10.00 Fair CLR 63 51.1 65% 30.09 1017.2
23 04:53 E 5 10.00 Fair CLR 64 52 75 64 65% 30.08 1016.6
23 03:53 Vrbl 3 10.00 Fair CLR 68 53.1 59% 30.07 1016.2
23 02:53 N 13 G 18 10.00 Fair CLR 69.1 52 55% 30.07 1015.9
23 01:53 N 12 10.00 Fair CLR 71.1 53.1 53% 30.06 1015.7
23 00:53 N 16 10.00 Fair CLR 73 54 51% 30.06 1015.7
22 23:53 N 14 10.00 Fair CLR 73.9 54 50% 30.05 1015.4
22 22:53 N 14 8.00 Fair CLR 75 55 99 75 50% 78 30.03 1015.2
22 21:53 N 13 7.00 Fair CLR 75.9 55 48% 78 30.02 1014.8
22 20:53 N 16 5.00 Fair with Haze CLR 79 55 44% 80 29.99 1013.9
22 19:53 N 18 G 29 5.00 Fair with Haze CLR 84 55.9 38% 83 29.97 1013.1
22 18:53 N 16 7.00 Fair CLR 90 57 33% 89 29.95 1012.4
22 17:53 N 18 G 28 10.00 Fair CLR 95 57 28% 94 29.94 1011.9
22 16:53 N 17 G 25 10.00 Fair CLR 99 55 102.9 84 23% 97 29.93 1011.5
22 15:53 N 12 G 20 10.00 Fair CLR 102 48.9 17% 99 29.93 1011.4
22 14:53 Calm 10.00 Fair CLR 100.9 48.9 17% 98 29.94 1011.8
22 13:53 Calm 10.00 Fair CLR 96.1 48.9 20% 93 29.96 1012.5
22 12:53 Vrbl 5 10.00 Fair CLR 93.9 53.1 25% 91 29.98 1013.1
22 11:53 NW 5 10.00 Fair CLR 89.1 55 31% 87 30 1013.8
22 10:53 Vrbl 5 10.00 Fair CLR 84 55 84 60.1 37% 83 30.02 1014.6
22 09:53 Vrbl 3 10.00 Fair CLR 79 54 42% 79 30.03 1015.1
22 08:53 Vrbl 3 10.00 Fair CLR 75 54 48% 78 30.04 1015.5
22 07:53 NE 5 10.00 Fair CLR 70 54 57% 30.04 1015.5
22 06:53 NE 5 10.00 Fair CLR 64 53.1 68% 30.04 1015.4
22 05:53 NE 6 10.00 Fair CLR 62.1 52 70% 30.03 1015.2
22 04:53 N 3 10.00 Fair CLR 62.1 52 75.9 62.1 70% 30.03 1014.8
22 03:53 NE 7 10.00 Fair CLR 64 53.1 68% 30.02 1014.6
22 02:53 NE 6 10.00 Fair CLR 64.9 53.1 66% 30.02 1014.6
22 01:53 NE 5 10.00 Fair CLR 68 54 61% 30.02 1014.6
22 00:53 N 10 10.00 Fair CLR 72 54 53% 30.03 1014.8
21 23:53 N 10 10.00 Fair CLR 73.9 54 50% 30.03 1014.9
21 22:53 N 9 10.00 Fair CLR 75.9 54 99 75.9 47% 78 30.04 1015.2
21 21:53 N 14 10.00 Fair CLR 79 55 44% 80 30.03 1014.9
21 20:53 N 10 10.00 Fair CLR 81 55 41% 81 30 1014.0
21 19:53 N 14 G 20 10.00 Fair CLR 86 55.9 36% 85 29.97 1012.9
21 18:53 N 14 G 26 10.00 Fair CLR 91 55.9 31% 89 29.95 1012.2
21 17:53 N 21 10.00 Fair and Breezy CLR 96.1 57 27% 95 29.94 1011.6
21 16:53 NW 20 G 26 10.00 Fair CLR 99 55.9 102.9 86 24% 98 29.93 1011.3
21 15:53 Vrbl 3 10.00 Fair CLR 102 48 16% 99 29.94 1011.4
21 14:53 Vrbl 6 10.00 Fair CLR 100.9 48.9 17% 98 29.96 1012.1
21 13:53 W 7 10.00 Fair CLR 99 48.9 18% 96 29.97 1012.4
21 12:53 Vrbl 3 9.00 Fair CLR 93.9 52 24% 91 29.99 1013.4
Date Time (pdt) Wind (mph) Vis. (mi.) Weather Sky Cond. Air Dwpt Max. Min. Relative Humidity Wind Chill (°F) Heat Index (°F) altimeter (in) sea level (mb) 1 hr 3 hr 6 hr
6 hour
Temperature (ºF) Pressure Precipitation (in)